sat.trackr.live / text

‹ back to catalog

STARLINK-34629

NORAD 64790 · 2025-150A

PAYLOAD ACTIVE UNKNOWN

§ Identity

Operator
Country
US
Launch date
2025-07-16
Launch site
AFWTR
Launch vehicle
Mass (kg)
RCS (m²)

Purposes: comms

External: N2YO · Heavens-Above · Gunter

§ Orbital elements

Epoch: 2026-05-25T03:45:30.430080Z

Period
96.11 min
Inclination
70.0004°
Eccentricity
0.0002814
Mean motion
14.98339975 rev/d
Perigee alt
570.1 km
Apogee alt
574.0 km
Semi-major
6,950.2 km
B*
1.5781e-4
RAAN
301.5457°
Arg perigee
270.0332°
Mean anomaly
90.0504°
Rev number
4,797

§ Raw data

STARLINK-346291 64790U 25150A   26145.15660220  .00001791  00000+0  15781-3 0  99912 64790  70.0004 301.5457 0002814 270.0332  90.0504 14.98339975 47979

JSON: /api/v1/satellites/64790 · /tle

For live sub-satellite position, see the globe view (requires WebGL).

§ Visibility from observer

Set your observer location to see the next 7 days of passes ≥ 10°. The values pass through the URL so the page stays shareable.

No JS? Fill the form by hand. The geolocation button needs JavaScript.